Date,TemperatureHighF,TemperatureAvgF,TemperatureLowF,DewpointHighF,DewpointAvgF,DewpointLowF,HumidityHigh,HumidityAvg,HumidityLow,PressureMaxIn,PressureMinIn,WindSpeedMaxMPH,WindSpeedAvgMPH,GustSpeedMaxMPH,PrecipitationSumIn
2013-1-1,37,31,24,35,29,22,95,94,91,30.23,30.01,10,3,10,0.00
2013-1-2,39,26,19,27,21,17,93,81,49,30.24,30.15,8,2,8,0.01
2013-1-3,49,31,16,33,23,13,93,75,44,30.41,30.23,7,1,7,0.01
2013-1-4,52,34,17,28,23,14,92,67,34,30.43,30.30,11,2,11,0.00
2013-1-5,44,37,28,34,29,22,93,73,63,30.30,30.15,14,4,16,0.00
2013-1-6,52,33,21,31,23,15,92,69,36,30.35,30.21,10,2,11,0.00
2013-1-7,54,37,21,29,24,16,84,62,37,30.31,30.09,14,4,15,0.00
2013-1-8,59,43,27,45,34,21,95,73,47,30.19,30.03,14,4,14,0.44
2013-1-9,54,50,46,46,43,37,96,79,57,30.32,30.18,24,6,24,0.04
2013-1-10,59,50,46,54,47,39,93,88,64,30.19,29.80,22,8,22,0.17
2013-1-11,67,56,45,47,45,43,92,69,45,29.87,29.72,25,10,25,0.00
2013-1-12,58,43,27,50,35,25,92,77,43,29.96,29.79,18,6,18,0.73
2013-1-13,32,22,16,25,18,12,91,84,68,30.32,29.95,12,4,12,0.00
2013-1-14,67,25,15,53,18,11,89,75,36,30.34,30.28,6,2,8,0.00
2013-1-15,37,25,15,23,17,12,88,74,40,30.28,30.12,8,2,8,0.01
2013-1-16,47,28,13,24,18,10,91,68,36,30.17,30.08,10,2,10,0.02
2013-1-17,52,36,23,33,25,16,85,65,42,30.45,30.17,13,2,13,0.00
2013-1-18,59,41,23,33,27,18,90,61,33,30.47,30.17,17,6,17,0.00
2013-1-19,66,49,34,38,33,28,80,55,36,30.18,30.06,17,6,17,0.00
2013-1-20,66,47,29,37,29,19,86,52,32,30.25,30.10,16,5,16,0.00
2013-1-21,43,30,21,19,15,13,75,57,34,30.37,30.24,12,4,12,0.00
2013-1-22,51,32,20,28,21,14,80,63,40,30.29,30.17,13,3,13,0.00
2013-1-23,66,44,26,45,34,20,87,68,44,30.25,30.12,12,2,12,0.00
2013-1-24,44,38,36,34,24,19,92,57,45,30.29,30.08,15,7,16,0.00
2013-1-25,54,38,31,35,31,28,94,76,46,30.23,30.07,9,2,9,0.00
2013-1-26,64,46,33,29,26,20,81,48,22,30.24,30.10,16,6,16,0.00
2013-1-27,60,54,46,56,48,28,89,81,48,30.11,29.91,24,11,24,0.00
2013-1-28,74,66,60,62,60,56,87,80,65,29.97,29.81,24,11,24,0.00
2013-1-29,69,59,44,62,55,43,96,87,77,29.81,29.48,26,10,26,1.66
2013-1-30,45,32,21,43,28,18,96,84,73,30.04,29.52,22,7,22,0.01
2013-1-31,50,29,18,32,21,8,93,72,47,30.40,29.98,14,4,16,0.02